Regional Weather Roundup
Issued by NWS

Home | Current Version | Previous Version | Graphics & Text | Print | Product List | Glossary Off
Versions: 1 2 3 4 5 6 7 8 9 10 11 12 13 14 15 16 17 18 19 20 21 22 23 24 25 26 27 28 29 30 31 32 33 34 35 36 37 38 39 40 41 42 43 44 45 46 47 48 49 50

161
ASUS45 KPSR 221310
RWRAZ

ARIZONA HOURLY REGIONAL WEATHER ROUNDUP
NATIONAL WEATHER SERVICE PHOENIX AZ
600 AM MST THU FEB 22 2018

NOTE: FAIR INDICATES FEW OR NO CLOUDS BELOW 12,000 FEET WITH NO
SIGNIFICANT WEATHER AND/OR OBSTRUCTIONS TO VISIBILITY.

AZZ001>003-036-221400-
NORTHWEST ARIZONA

CITY           SKY/WX    TMP DP  RH WIND       PRES   REMARKS
BULLHEAD CITY  FAIR      37   9  30 CALM      30.14S
KINGMAN        FAIR      29   7  39 W3        30.07R
$$

AZZ004>008-015-016-018-221400-
NORTH CENTRAL ARIZONA

CITY           SKY/WX    TMP DP  RH WIND       PRES   REMARKS
GRAND CANYON   FAIR       4   1  88 CALM      29.99R
WILLIAMS       FAIR       9   3  78 S7        29.97R WCI  -3
PRESCOTT       FAIR      25   5  42 S10       30.05R WCI  15
FLAGSTAFF      FAIR      10   3  73 SW3       29.98R
PAYSON         CLOUDY    28  16  59 CALM      30.05R
PAGE           CLOUDY    31  18  58 CALM      30.00S
$$

AZZ009>014-017-221400-
NORTHEAST ARIZONA

CITY           SKY/WX    TMP DP  RH WIND       PRES   REMARKS
WINSLOW        MOCLDY    21   6  52 SW3       30.05R
SAINT JOHNS    FAIR      24  21  88 W6        30.02S WCI  17
WINDOW ROCK    MOCLDY    24  21  88 CALM      29.99S
SHOW LOW       CLOUDY    27  19  74 S12       30.03R WCI  16
$$

AZZ540-542>544-546-548-221400-
GREATER PHOENIX AREA

CITY           SKY/WX    TMP DP  RH WIND       PRES   REMARKS
PHOENIX        FAIR      42  15  33 E5        30.12R
BUCKEYE        FAIR      34   7  32 NE3       30.14R
GLENDALE       PTCLDY    41  12  30 CALM      30.14
LUKE AFB       FAIR      36  20  52 CALM      30.11R
DEER VALLEY    FAIR      36  16  44 CALM      30.11
SCOTTSDALE     FAIR      40  15  36 CALM      30.13R
MESA-GATEWAY   PTCLDY    36  19  51 NE6       30.14R WCI  31
CHANDLER       CLEAR     41  12  30 CALM      30.13
$$

AZZ539-553-221400-
SOUTHWEST MARICOPA COUNTY AND PINAL COUNTY

CITY           SKY/WX    TMP DP  RH WIND       PRES   REMARKS
CASA GRANDE      N/A     37  17  44 SW5       30.15R WCI  33
GILA BEND      FAIR      37  13  38 S7        30.14R WCI  31
$$

AZZ503-504-507>509-221400-
SOUTHEAST ARIZONA

CITY           SKY/WX    TMP DP  RH WIND       PRES   REMARKS
TUCSON         FAIR      40  25  55 SE5       30.15R
DAVIS-MONTHAN  FAIR      37  26  63 SE6       30.13R WCI  33
RYAN FIELD     CLEAR     37  28  70 CALM      30.16
NOGALES        FAIR      32  27  81 E5        30.13R WCI  27
SIERRA VISTA   FAIR      35  26  69 SW5       30.11R WCI  31
DOUGLAS        FAIR      27  23  85 SE5       30.12R WCI  22
SAFFORD        FAIR      40  21  46 W9        30.08R WCI  34
$$

AZZ532-221400-
SOUTHWEST ARIZONA

CITY           SKY/WX    TMP DP  RH WIND       PRES   REMARKS
YUMA           FAIR      44  30  57 W3        30.17R
$$

CAZ041-043-047-048-061-525>527-560>570-221400-
SOUTHERN CALIFORNIA

CITY           SKY/WX    TMP DP  RH WIND       PRES   REMARKS
DOWNTOWN L.A.  FAIR      47  27  45 E5        30.18S
L.A. AIRPORT   FAIR      44  30  57 E5        30.19S
SAN DIEGO      MOCLDY    48  37  65 CALM      30.23R
BURBANK        FAIR      40  27  59 CALM      30.17S
ONTARIO        FAIR      41  29  62 CALM      30.18S
RIVERSIDE      FAIR      38  31  76 E3        30.19R
PALM SPRINGS   FAIR      42  31  64 CALM      30.16R
EL CENTRO NAS  FAIR      44  29  55 SW8       30.19R
IMPERIAL       FAIR      44  30  57 W10       30.16R
BLYTHE         FAIR      34   3  27 NW3       30.14R
NEEDLES        FAIR      37   6  27 CALM      30.13R
$$

NVZ020-UTZ003-221400-
SOUTHERN NEVADA-UTAH

CITY           SKY/WX    TMP DP  RH WIND       PRES   REMARKS
LAS VEGAS      FAIR      36  13  38 CALM      30.07S
SALT LAKE CITY MOCLDY    23  14  68 SE6       29.98F WCI  16
$$

NMZ009-TXZ055-221400-
NEW MEXICO-WEST TEXAS

CITY           SKY/WX    TMP DP  RH WIND       PRES   REMARKS
ALBUQUERQUE    CLOUDY    32  20  61 N10       30.01R WCI  24
EL PASO        FAIR      37  24  59 CALM      30.06R
$$


........................KEY........................
SKY/WX - SKY CONDITION/WEATHER
TMP    - TEMPERATURE IN FAHRENHEIT
DP     - DEW POINT IN FAHRENHEIT
RH     - RELATIVE HUMIDITY IN PERCENT
WIND   - DIRECTION AND SPEED IN MILES PER HOUR (MPH)
VRB    - VARIABLE WIND DIRECTION
PRES   - MEAN SEA LEVEL PRESSURE IN INCHES OF MERCURY
         F - FALLING PRESSURE   R - RISING PRESSURE
         S - STEADY PRESSURE
VSB    - VISIBILITY IN MILES
HX     - HEAT INDEX IN FAHRENHEIT
WCI    - WIND CHILL INDEX IN FAHRENHEIT
TC     - TEMPERATURE IN CELSIUS WHICH IS ALSO KNOWN AS
         TEMPERATURE IN CENTIGRADE
AFB    - AIR FORCE BASE
         LUKE AFB IS LUKE AIR FORCE BASE
         DAVIS-MONTHAN IS DAVIS-MONTHAN AIR FORCE BASE
NAS    - NAVAL AIR STATION
         EL CENTRO NAS IS EL CENTRO NAVAL AIR STATION
N/A    - NOT AVAILABLE





USA.gov is the U.S. government's official web portal to all federal, state and local government web resources and services.